Starlink 30529

operational
NORAD ID: 58047 Int'l Des: 2023-156 Owner: SPXS Country: US Constellation: starlink
LEOCIRCULAR

关于 Starlink 30529

正在加载描述...

实时位置

正在加载3D地球...

即将过境

高度历史

Altitude vs Time

uPlot chart will show altitude changes over time

两行轨道根数

1 58047U 23156V 26035.08664228 -.00000722 00000-0 -12275-4 0 9997
2 58047 53.1600 324.5618 0001052 119.9566 240.1539 15.30193003129837
Epoch: Feb 4, 2026 • Age: 9 hours

当前状态

高度 489.6 km
速度 7.62 km/s
星下点 -42.10°S, 113.66°W
发射日期 Oct 9, 2023
运行时间 2.3 years
类型 internet

技术详情

分类 Payload
质量 730.00 kg
干质量 700.00 kg
总质量 730.00 kg
长度 0.30 m
直径 4.10 m
跨度 29.00 m
形状 Box + pan
制造商 SPXS
平台类型 Starlink V2M
阶段状态 In Orbit
所有者/国家 SPXS/US

大型星座

Loading constellations...